Precipitable_Water
0.80 0.62 0.49 0.48 0.46 0.41 0.41 0.38 0.35 0.49 0.59 0.61 0.59 0.61 0.67 0.74 0.74 0.69 0.71 0.72 0.74 0.76 0.79 0.85 0.85 0.94 0.94 0.97 0.97 1.01 1.01 0.99 0.96 0.89 0.73 0.70 0.67 0.72 0.78 0.83 0.87 0.87 0.89 0.91
0.69 0.53 0.60 0.58 0.51 0.45 0.42 0.39 0.40 0.49 0.57 0.57 0.57 0.54 0.63 0.65 0.68 0.72 0.70 0.68 0.61 0.75 0.79 0.82 0.83 0.88 0.88 0.85 0.89 0.94 0.93 0.98 0.92 0.88 0.79 0.76 0.73 0.75 0.79 0.85 0.88 0.92 0.93 0.98
0.55 0.54 0.67 0.59 0.46 0.41 0.39 0.41 0.42 0.51 0.58 0.60 0.57 0.51 0.55 0.61 0.63 0.68 0.68 0.69 0.68 0.62 0.70 0.72 0.77 0.80 0.83 0.80 0.80 0.81 0.86 0.87 0.88 0.80 0.82 0.82 0.84 0.83 0.79 0.82 0.88 0.94 1.00 1.02
0.59 0.65 0.61 0.55 0.44 0.41 0.30 0.43 0.50 0.50 0.49 0.45 0.62 0.34 0.42 0.49 0.50 0.59 0.57 0.62 0.64 0.63 0.65 0.72 0.67 0.74 0.77 0.73 0.82 0.79 0.80 0.83 0.88 0.86 0.76 0.72 0.68 0.65 0.72 0.77 0.86 0.94 0.99 1.00
0.50 0.55 0.56 0.52 0.44 0.48 0.35 0.49 0.49 0.45 0.44 0.49 0.49 0.36 0.31 0.42 0.41 0.46 0.54 0.61 0.62 0.61 0.59 0.63 0.68 0.67 0.70 0.78 0.78 0.82 0.78 0.76 0.83 0.86 0.83 0.78 0.75 0.75 0.77 0.82 0.84 0.92 1.00 1.02
0.63 0.69 0.65 0.56 0.58 0.54 0.55 0.48 0.46 0.49 0.46 0.32 0.37 0.35 0.26 0.32 0.36 0.40 0.47 0.58 0.62 0.64 0.61 0.61 0.65 0.70 0.75 0.83 0.84 0.85 0.82 0.80 0.81 0.83 0.84 0.80 0.76 0.75 0.76 0.78 0.80 0.86 0.93 0.97
0.59 0.61 0.65 0.65 0.55 0.58 0.52 0.40 0.29 0.27 0.28 0.21 0.35 0.30 0.31 0.38 0.39 0.41 0.42 0.47 0.56 0.65 0.62 0.57 0.61 0.68 0.74 0.77 0.83 0.84 0.84 0.80 0.83 0.81 0.79 0.79 0.79 0.82 0.79 0.79 0.80 0.83 0.85 0.88
0.43 0.40 0.58 0.64 0.54 0.47 0.46 0.42 0.27 0.20 0.19 0.21 0.33 0.22 0.27 0.35 0.40 0.42 0.45 0.51 0.52 0.50 0.51 0.50 0.54 0.60 0.66 0.75 0.84 0.85 0.88 0.84 0.88 0.84 0.77 0.79 0.81 0.81 0.81 0.84 0.86 0.89 0.89 0.90
0.44 0.44 0.63 0.67 0.64 0.57 0.47 0.41 0.44 0.30 0.29 0.23 0.27 0.28 0.35 0.38 0.35 0.38 0.39 0.41 0.46 0.45 0.42 0.45 0.51 0.56 0.62 0.68 0.77 0.86 0.82 0.84 0.87 0.86 0.89 0.88 0.86 0.83 0.82 0.86 0.92 0.90 0.91 0.92
0.49 0.42 0.59 0.62 0.69 0.67 0.57 0.55 0.38 0.36 0.21 0.17 0.22 0.23 0.22 0.29 0.30 0.34 0.36 0.37 0.40 0.41 0.41 0.41 0.43 0.49 0.54 0.65 0.76 0.83 0.87 0.83 0.85 0.92 0.97 0.97 0.97 0.95 0.94 0.96 0.90 0.89 0.89 0.91
0.52 0.47 0.51 0.60 0.54 0.48 0.52 0.48 0.47 0.42 0.34 0.20 0.17 0.20 0.32 0.31 0.33 0.34 0.37 0.37 0.37 0.39 0.41 0.42 0.42 0.43 0.44 0.46 0.51 0.63 0.78 0.82 0.84 0.88 0.93 0.98 1.01 1.03 1.04 0.99 0.97 0.96 0.99 0.99
0.54 0.48 0.43 0.48 0.59 0.61 0.58 0.49 0.47 0.35 0.29 0.32 0.27 0.23 0.33 0.36 0.40 0.38 0.36 0.37 0.37 0.37 0.38 0.41 0.42 0.43 0.43 0.45 0.46 0.45 0.47 0.51 0.65 0.79 0.87 0.89 0.93 0.99 1.03 1.04 1.08 1.12 1.09 1.10
0.55 0.46 0.39 0.41 0.52 0.59 0.52 0.51 0.51 0.46 0.41 0.31 0.26 0.26 0.36 0.37 0.38 0.38 0.36 0.37 0.37 0.38 0.39 0.39 0.41 0.41 0.42 0.44 0.44 0.45 0.46 0.45 0.47 0.51 0.55 0.63 0.72 0.82 0.91 0.99 1.04 1.10 1.11 1.12
0.59 0.48 0.39 0.29 0.29 0.41 0.41 0.46 0.50 0.45 0.37 0.32 0.31 0.31 0.35 0.36 0.34 0.34 0.35 0.36 0.36 0.37 0.39 0.41 0.40 0.40 0.42 0.42 0.42 0.43 0.44 0.47 0.47 0.47 0.49 0.50 0.54 0.61 0.70 0.81 0.87 0.94 1.01 1.02
0.54 0.42 0.43 0.41 0.43 0.45 0.45 0.48 0.51 0.45 0.40 0.33 0.29 0.32 0.33 0.34 0.34 0.37 0.38 0.38 0.40 0.41 0.42 0.42 0.41 0.41 0.41 0.41 0.43 0.43 0.43 0.44 0.46 0.47 0.49 0.51 0.54 0.57 0.61 0.65 0.73 0.74 0.78 0.83
0.58 0.43 0.45 0.40 0.45 0.44 0.40 0.44 0.45 0.42 0.40 0.37 0.37 0.32 0.39 0.39 0.43 0.42 0.43 0.45 0.44 0.44 0.44 0.43 0.43 0.42 0.41 0.41 0.42 0.43 0.44 0.46 0.49 0.47 0.47 0.51 0.54 0.57 0.60 0.63 0.64 0.66 0.68 0.72
0.52 0.47 0.42 0.36 0.43 0.43 0.38 0.37 0.38 0.37 0.44 0.37 0.32 0.34 0.42 0.42 0.44 0.45 0.45 0.44 0.39 0.39 0.40 0.40 0.40 0.41 0.41 0.41 0.43 0.42 0.44 0.47 0.48 0.51 0.53 0.53 0.54 0.54 0.56 0.58 0.59 0.60 0.62 0.64
0.50 0.47 0.44 0.38 0.41 0.29 0.34 0.43 0.43 0.40 0.42 0.41 0.38 0.40 0.43 0.44 0.44 0.45 0.45 0.42 0.40 0.39 0.39 0.39 0.39 0.39 0.40 0.41 0.42 0.43 0.44 0.45 0.45 0.47 0.50 0.54 0.56 0.57 0.58 0.58 0.57 0.58 0.61 0.61
0.56 0.50 0.42 0.36 0.33 0.34 0.35 0.35 0.37 0.37 0.34 0.44 0.41 0.44 0.46 0.46 0.44 0.42 0.46 0.45 0.43 0.41 0.40 0.40 0.40 0.40 0.41 0.42 0.43 0.42 0.42 0.43 0.43 0.43 0.45 0.49 0.52 0.53 0.54 0.54 0.57 0.59 0.60 0.62
0.57 0.53 0.44 0.40 0.32 0.27 0.31 0.38 0.45 0.50 0.32 0.43 0.43 0.44 0.46 0.46 0.33 0.35 0.43 0.43 0.42 0.40 0.38 0.38 0.40 0.42 0.41 0.42 0.43 0.42 0.41 0.42 0.41 0.44 0.46 0.50 0.52 0.52 0.53 0.55 0.56 0.58 0.59 0.60
0.44 0.45 0.40 0.39 0.35 0.35 0.38 0.41 0.48 0.33 0.24 0.39 0.40 0.39 0.39 0.36 0.34 0.39 0.41 0.39 0.39 0.38 0.38 0.42 0.43 0.42 0.43 0.46 0.46 0.43 0.44 0.43 0.46 0.48 0.49 0.49 0.50 0.50 0.52 0.53 0.54 0.56 0.57 0.59
0.38 0.37 0.37 0.40 0.33 0.24 0.41 0.41 0.32 0.35 0.39 0.35 0.36 0.37 0.36 0.37 0.37 0.38 0.38 0.36 0.36 0.36 0.39 0.41 0.40 0.40 0.44 0.47 0.46 0.44 0.44 0.48 0.50 0.50 0.50 0.51 0.52 0.53 0.54 0.54 0.55 0.56 0.56 0.56
0.39 0.40 0.38 0.39 0.33 0.40 0.43 0.40 0.42 0.38 0.36 0.32 0.31 0.34 0.34 0.33 0.34 0.36 0.34 0.34 0.35 0.37 0.38 0.41 0.40 0.41 0.42 0.44 0.44 0.41 0.44 0.47 0.47 0.47 0.47 0.47 0.49 0.50 0.52 0.51 0.50 0.50 0.51 0.52
0.50 0.53 0.44 0.42 0.43 0.39 0.38 0.41 0.40 0.37 0.32 0.31 0.32 0.32 0.34 0.33 0.34 0.33 0.33 0.34 0.35 0.38 0.38 0.40 0.40 0.40 0.40 0.44 0.45 0.45 0.46 0.47 0.46 0.46 0.46 0.48 0.48 0.48 0.48 0.49 0.50 0.48 0.48 0.48
0.49 0.50 0.43 0.40 0.40 0.42 0.38 0.36 0.35 0.34 0.33 0.32 0.33 0.33 0.33 0.33 0.33 0.34 0.34 0.35 0.36 0.38 0.39 0.41 0.40 0.40 0.41 0.43 0.43 0.44 0.45 0.46 0.44 0.44 0.44 0.45 0.45 0.46 0.46 0.47 0.48 0.47 0.48 0.48
0.52 0.46 0.39 0.35 0.42 0.39 0.39 0.36 0.37 0.34 0.33 0.33 0.33 0.34 0.36 0.36 0.34 0.36 0.35 0.37 0.38 0.39 0.41 0.40 0.40 0.39 0.40 0.42 0.42 0.42 0.43 0.42 0.40 0.38 0.38 0.38 0.39 0.39 0.40 0.40 0.40 0.43 0.45 0.48
Wind_Speed
31 34 39 37 36 30 27 27 29 26 25 22 27 22 23 21 19 18 17 17 19 22 22 21 22 22 21 21 20 20 20 21 20 19 19 19 19 19 19 20 20 20 20 20
28 40 37 33 34 33 30 28 28 24 24 26 24 25 25 24 22 22 22 20 18 19 21 22 23 23 23 23 23 22 23 22 23 22 21 20 20 20 21 21 22 22 22 22
40 36 35 36 34 37 35 30 28 24 23 24 22 25 25 26 25 24 24 22 21 20 21 22 22 24 24 24 25 25 25 24 24 24 23 22 22 22 22 23 23 24 24 24
40 34 40 40 40 37 37 32 28 26 24 24 23 22 22 22 24 26 24 23 22 21 21 23 23 23 24 25 26 27 26 27 26 26 25 25 24 24 25 25 25 25 26 26
38 41 40 43 45 39 32 30 26 24 23 24 25 22 23 25 23 23 25 24 23 22 22 23 25 25 25 25 26 27 27 27 28 28 27 27 27 26 26 27 27 27 28 29
33 36 36 41 38 37 29 27 25 24 23 28 28 26 25 25 24 22 21 23 24 23 23 23 25 27 26 26 26 27 27 28 29 29 29 29 29 29 28 28 29 29 30 31
33 33 36 38 35 35 34 31 24 26 26 30 26 28 33 22 22 21 21 21 23 23 23 24 24 25 26 28 29 28 28 28 29 30 30 30 31 31 31 31 31 31 31 32
35 31 38 36 44 37 42 37 28 26 27 27 24 28 27 29 29 23 23 21 19 19 21 23 24 24 25 27 30 31 30 30 30 31 31 32 33 33 33 33 33 33 33 33
36 31 34 35 35 39 38 39 30 23 22 22 26 28 27 25 24 23 23 22 23 22 20 20 22 25 25 25 27 31 32 33 33 33 33 34 35 35 35 36 36 36 35 35
34 28 32 33 33 33 38 37 31 26 24 26 26 27 26 26 25 23 22 22 22 22 20 20 20 21 24 25 27 29 32 34 35 36 36 37 37 38 39 38 38 38 38 38
40 31 31 33 36 40 35 40 35 31 26 24 24 27 27 28 27 23 20 20 19 18 19 20 20 21 22 24 26 28 30 32 34 36 37 38 38 39 39 40 41 41 41 41
39 32 33 36 28 34 37 37 37 33 32 28 24 25 22 23 23 19 18 18 18 18 17 18 20 21 22 22 23 25 28 30 32 33 35 37 38 39 40 41 42 42 43 43
41 32 30 27 29 30 40 38 40 29 27 32 25 26 24 21 20 22 21 21 20 20 21 22 22 22 22 22 23 23 24 26 28 31 33 35 37 39 40 41 41 42 42 43
40 35 39 40 46 31 40 43 41 32 29 26 34 25 26 25 23 24 23 23 23 22 22 22 22 22 23 23 24 24 25 26 26 27 29 31 33 35 37 39 40 41 42 42
40 35 35 30 29 35 37 35 38 40 36 31 33 31 29 27 25 25 25 24 23 24 24 24 24 25 26 26 27 27 27 28 28 29 29 30 30 32 33 35 37 38 40 40
39 35 32 28 33 33 37 39 39 41 41 39 25 29 28 27 25 25 25 25 26 27 26 26 26 26 28 28 28 29 30 31 31 32 32 32 32 32 32 32 32 33 34 35
42 34 31 30 30 26 29 43 43 41 38 40 36 34 28 30 29 29 28 27 26 26 26 26 26 27 27 28 29 30 30 30 31 33 33 33 34 34 33 33 32 33 32 33
39 33 29 26 27 29 30 38 42 41 41 42 38 28 29 28 27 27 27 26 25 24 25 25 26 26 27 27 27 28 28 28 28 29 30 31 32 32 33 33 33 33 33 34
40 35 28 28 32 25 29 30 41 37 42 41 41 35 29 28 27 28 27 26 25 24 25 26 27 27 26 26 25 25 25 25 25 25 26 27 27 28 28 29 29 30 30 31
35 37 32 29 27 31 26 28 32 29 35 39 39 38 36 31 30 28 26 24 24 25 24 24 24 23 23 24 23 22 22 22 22 23 23 23 23 25 26 27 27 28 29 29
35 34 35 31 27 28 26 24 26 26 25 28 37 38 36 34 32 26 25 24 23 22 20 19 18 18 18 18 18 18 19 19 20 20 20 21 22 24 25 26 27 28 29 29
35 32 30 26 25 28 25 27 33 26 23 20 23 31 32 28 26 26 24 22 20 18 16 16 15 15 14 14 14 14 15 17 17 18 19 20 20 21 22 23 24 25 26 26
31 36 31 33 29 18 26 28 29 21 21 20 21 24 25 25 25 24 22 20 18 17 17 16 15 13 13 12 12 13 15 16 17 17 19 20 21 22 22 23 23 24 25 25
33 35 30 27 30 27 23 23 23 21 20 20 20 21 23 23 24 22 21 20 19 18 17 16 15 14 14 14 14 14 16 17 17 18 19 20 19 20 20 21 21 22 22 23
33 33 32 28 24 26 24 24 23 21 20 19 19 20 22 23 22 22 21 19 18 18 18 17 16 16 15 15 15 16 17 18 17 18 18 19 19 19 19 20 21 21 23 24
30 32 31 28 29 26 30 24 23 23 22 22 21 21 22 24 23 23 21 20 19 18 18 18 17 16 16 16 17 18 19 19 19 19 19 19 19 20 20 21 21 22 23 25
Wind_Direction
217 218 219 220 221 223 222 228 229 233 232 229 233 236 240 244 238 239 241 240 237 235 235 234 232 233 229 230 229 231 231 230 232 235 238 240 242 244 248 248 250 253 255 259
219 223 220 220 223 225 226 227 231 235 230 230 237 239 240 243 243 240 241 244 242 239 236 234 233 231 231 233 232 234 234 234 235 238 241 244 246 248 251 252 254 256 258 261
221 227 220 221 221 221 225 228 226 228 230 236 239 244 240 244 243 242 243 245 246 240 236 234 233 233 235 235 235 236 237 238 238 240 243 246 249 251 253 255 257 258 259 262
227 227 218 219 221 219 222 224 228 224 226 234 231 246 245 242 243 240 243 242 243 242 240 236 235 236 237 238 238 239 239 240 241 242 244 246 249 252 255 257 259 260 261 264
222 216 216 218 218 216 224 218 223 228 230 237 237 243 244 241 243 241 240 241 241 242 242 239 237 239 241 241 240 240 241 242 243 244 246 249 252 256 258 259 261 261 263 265
227 226 222 220 217 215 216 215 225 229 233 239 233 236 241 238 242 242 242 242 241 243 244 244 241 243 244 243 243 243 242 243 244 246 248 251 253 256 258 259 262 264 265 266
221 221 218 212 210 211 212 210 223 228 230 236 235 233 241 238 238 240 242 244 243 244 247 246 246 244 245 245 243 244 244 246 246 248 250 253 255 257 260 261 263 264 266 267
208 213 210 211 211 212 210 210 218 222 229 235 238 238 244 238 240 241 245 245 243 242 248 248 248 248 247 248 245 244 246 248 249 252 254 256 258 260 261 262 264 265 267 268
209 219 212 215 212 210 214 216 219 226 235 234 235 243 250 243 240 240 240 242 244 247 250 253 253 251 252 253 250 247 247 250 253 255 257 258 259 260 262 263 265 266 268 269
211 212 215 213 211 217 216 212 217 227 227 237 241 243 241 241 242 239 240 241 246 248 250 253 257 256 255 256 256 255 254 254 257 258 260 261 262 262 263 264 265 267 268 269
206 212 213 210 216 214 214 216 222 224 227 232 238 245 241 237 238 239 239 238 238 242 246 253 256 258 260 262 262 261 260 260 260 261 261 262 263 263 264 265 267 268 269 269
211 212 209 213 224 223 219 219 220 225 229 235 240 248 248 242 236 233 231 231 234 237 240 251 261 262 263 267 268 267 266 265 265 265 265 264 264 265 266 267 268 269 269 270
202 209 203 214 223 223 218 218 219 226 229 231 232 243 243 239 233 233 235 238 240 245 249 255 260 262 264 268 272 272 270 270 269 267 267 267 267 267 268 268 269 270 271 271
204 211 211 213 219 215 215 217 217 221 225 229 234 238 240 238 236 236 237 241 245 249 250 255 259 260 262 267 269 271 272 273 274 273 272 272 270 271 271 270 270 271 271 271
208 212 212 221 222 216 213 211 213 222 226 229 236 235 235 233 233 234 239 244 248 252 255 256 260 263 266 268 270 271 272 272 272 273 273 274 275 275 274 273 273 273 272 271
209 211 215 221 216 213 213 217 218 224 225 233 233 235 234 233 234 237 241 244 251 255 257 260 263 266 269 270 271 272 273 274 273 273 273 273 273 273 273 275 275 275 274 274
206 209 211 218 215 213 223 218 219 225 223 229 231 236 233 235 240 240 243 248 252 255 258 262 266 269 271 272 272 275 276 276 274 274 273 273 272 273 274 274 275 276 278 278
202 202 207 212 204 219 231 220 224 226 228 230 233 233 232 233 235 240 244 244 248 253 260 265 268 271 273 275 276 277 278 279 279 278 277 275 274 273 273 276 277 278 279 279
207 204 207 212 216 234 236 229 220 223 234 231 231 230 231 233 236 243 242 246 253 257 263 266 269 270 272 275 276 277 279 280 280 280 280 278 277 276 277 277 277 279 280 280
207 211 212 214 218 229 235 230 225 225 243 229 229 229 230 231 239 241 241 244 251 258 261 264 266 269 271 274 274 275 277 280 283 284 284 282 280 279 279 279 280 281 281 282
203 209 212 216 226 240 231 222 203 213 242 229 223 226 225 230 239 239 239 245 249 252 256 259 262 266 271 273 272 275 278 282 285 285 286 286 286 284 284 283 283 284 285 285
202 202 209 213 218 233 216 204 209 231 228 231 221 220 222 228 230 232 236 237 240 244 248 251 255 263 269 271 272 277 283 286 286 288 290 291 292 292 291 289 289 289 288 287
210 209 207 212 218 219 220 224 223 228 221 224 218 218 219 220 224 224 227 230 237 240 241 244 247 252 262 269 276 280 287 289 291 293 294 294 294 294 293 292 292 291 291 290
213 210 214 220 226 223 218 218 214 219 219 216 217 216 214 217 216 219 221 227 234 236 237 240 243 249 259 268 277 284 288 291 292 294 295 295 294 295 296 296 296 296 295 294
215 213 215 222 222 212 216 212 208 212 215 214 216 217 214 210 215 217 221 225 229 233 236 239 243 250 257 266 274 280 286 289 290 291 292 293 294 296 296 298 299 299 297 296
216 215 216 222 216 217 213 214 213 215 219 215 217 218 218 216 217 219 222 225 228 230 235 239 244 250 257 266 275 281 286 287 287 290 291 291 292 295 296 297 298 300 300 300